Time,TemperatureF,DewpointF,PressureIn,WindDirection,WindDirectionDegrees,WindSpeedMPH,WindSpeedGustMPH,Humidity,HourlyPrecipIn,Conditions,Clouds,dailyrainin,SolarRadiationWatts/m^2,SoftwareType,DateUTC
2013-07-09 00:43:00,66.0,66.0,-100.00,West,263,0.0,2.0,100,0.00,,,0.18,1.000000,,2013-07-09 04:43:00,
2013-07-09 00:53:00,66.0,66.0,-100.00,West,263,0.0,2.0,100,0.00,,,0.18,1.000000,,2013-07-09 04:53:00,
2013-07-09 01:22:00,65.0,65.0,-100.00,SW,232,0.0,0.0,100,0.00,,,0.17,1.000000,,2013-07-09 05:22:00,
2013-07-09 01:34:00,65.0,65.0,-100.00,SW,232,0.0,0.0,100,0.00,,,0.17,1.000000,,2013-07-09 05:34:00,
2013-07-09 01:42:00,65.0,65.0,-100.00,SW,232,0.0,0.0,100,0.00,,,0.17,1.000000,,2013-07-09 05:42:00,
2013-07-09 01:52:00,65.0,65.0,-100.00,SW,232,0.0,0.0,100,0.00,,,0.17,1.000000,,2013-07-09 05:52:00,
2013-07-09 02:34:00,67.0,67.0,-100.00,ENE,73,4.0,6.0,100,0.00,,,0.16,1.000000,,2013-07-09 06:34:00,
2013-07-09 02:43:00,67.0,67.0,-100.00,ENE,73,4.0,6.0,100,0.00,,,0.16,1.000000,,2013-07-09 06:43:00,
2013-07-09 02:53:00,67.0,67.0,-100.00,ENE,73,4.0,6.0,100,0.00,,,0.16,1.000000,,2013-07-09 06:53:00,
2013-07-09 03:22:00,65.0,65.0,-100.00,SSW,196,0.0,4.0,100,0.00,,,0.15,1.000000,,2013-07-09 07:22:00,
2013-07-09 03:34:00,65.0,65.0,-100.00,SSW,196,0.0,4.0,100,0.00,,,0.15,1.000000,,2013-07-09 07:34:00,
2013-07-09 03:43:00,65.0,65.0,-100.00,SSW,196,0.0,4.0,100,0.00,,,0.15,1.000000,,2013-07-09 07:43:00,
2013-07-09 03:53:00,65.0,65.0,-100.00,SSW,196,0.0,4.0,100,0.00,,,0.15,1.000000,,2013-07-09 07:53:00,
2013-07-09 04:43:00,64.0,64.0,-100.00,West,274,0.0,3.0,100,0.00,,,0.14,1.000000,,2013-07-09 08:43:00,
2013-07-09 04:52:00,64.0,64.0,-100.00,West,274,0.0,3.0,100,0.00,,,0.14,1.000000,,2013-07-09 08:52:00,
2013-07-09 05:34:00,64.0,64.0,-100.00,West,271,0.0,2.0,100,0.00,,,0.13,1.000000,,2013-07-09 09:34:00,
2013-07-09 05:42:00,64.0,64.0,-100.00,West,271,0.0,2.0,100,0.00,,,0.13,1.000000,,2013-07-09 09:42:00,
2013-07-09 05:53:00,64.0,64.0,-100.00,West,271,0.0,2.0,100,0.00,,,0.13,1.000000,,2013-07-09 09:53:00,
2013-07-09 06:34:00,64.0,64.0,-100.00,WSW,254,0.0,2.0,100,0.00,,,0.11,4.000000,,2013-07-09 10:34:00,
2013-07-09 06:42:00,64.0,64.0,-100.00,WSW,254,0.0,2.0,100,0.00,,,0.11,4.000000,,2013-07-09 10:42:00,
2013-07-09 06:52:00,64.0,64.0,-100.00,WSW,254,0.0,2.0,100,0.00,,,0.11,4.000000,,2013-07-09 10:52:00,
2013-07-09 07:22:00,66.0,66.0,-100.00,WSW,250,0.0,0.0,100,0.00,,,0.10,73.000000,,2013-07-09 11:22:00,
2013-07-09 07:34:00,66.0,66.0,-100.00,WSW,250,0.0,0.0,100,0.00,,,0.10,73.000000,,2013-07-09 11:34:00,
2013-07-09 07:42:00,66.0,66.0,-100.00,WSW,250,0.0,0.0,100,0.00,,,0.10,73.000000,,2013-07-09 11:42:00,
2013-07-09 07:53:00,66.0,66.0,-100.00,WSW,250,0.0,0.0,100,0.00,,,0.10,73.000000,,2013-07-09 11:53:00,
2013-07-09 08:22:00,69.0,69.0,-100.00,SW,230,0.0,2.0,100,0.00,,,0.09,120.000000,,2013-07-09 12:22:00,
2013-07-09 08:33:00,69.0,69.0,-100.00,SW,230,0.0,2.0,100,0.00,,,0.09,120.000000,,2013-07-09 12:33:00,
2013-07-09 08:43:00,69.0,69.0,-100.00,SW,230,0.0,2.0,100,0.00,,,0.09,120.000000,,2013-07-09 12:43:00,
2013-07-09 08:52:00,69.0,69.0,-100.00,SW,230,0.0,2.0,100,0.00,,,0.09,120.000000,,2013-07-09 12:52:00,
2013-07-09 09:33:00,73.0,73.0,-100.00,NNW,338,0.0,2.0,100,0.00,,,0.07,188.000000,,2013-07-09 13:33:00,
2013-07-09 09:43:00,73.0,73.0,-100.00,NNW,338,0.0,2.0,100,0.00,,,0.07,188.000000,,2013-07-09 13:43:00,
2013-07-09 09:53:00,73.0,73.0,-100.00,NNW,338,0.0,2.0,100,0.00,,,0.07,188.000000,,2013-07-09 13:53:00,
2013-07-09 10:22:00,76.0,74.0,-100.00,West,274,3.0,7.0,95,0.00,,,0.06,322.000000,,2013-07-09 14:22:00,
2013-07-09 10:34:00,76.0,74.0,-100.00,West,274,3.0,7.0,95,0.00,,,0.06,322.000000,,2013-07-09 14:34:00,
2013-07-09 10:43:00,76.0,74.0,-100.00,West,274,3.0,7.0,95,0.00,,,0.06,322.000000,,2013-07-09 14:43:00,
2013-07-09 10:53:00,76.0,74.0,-100.00,West,274,3.0,7.0,95,0.00,,,0.06,322.000000,,2013-07-09 14:53:00,
2013-07-09 11:22:00,78.0,75.0,-100.00,NW,306,2.0,4.0,92,0.00,,,0.05,332.000000,,2013-07-09 15:22:00,
2013-07-09 11:34:00,78.0,75.0,-100.00,NW,306,2.0,4.0,92,0.00,,,0.05,332.000000,,2013-07-09 15:34:00,
2013-07-09 11:43:00,78.0,75.0,-100.00,NW,306,2.0,4.0,92,0.00,,,0.05,332.000000,,2013-07-09 15:43:00,
2013-07-09 11:52:00,78.0,75.0,-100.00,NW,306,2.0,4.0,92,0.00,,,0.05,332.000000,,2013-07-09 15:52:00,
2013-07-09 12:43:00,79.0,73.0,-100.00,NE,39,2.0,4.0,83,0.00,,,0.04,403.000000,,2013-07-09 16:43:00,
2013-07-09 12:52:00,79.0,73.0,-100.00,NE,39,2.0,4.0,83,0.00,,,0.04,403.000000,,2013-07-09 16:52:00,
2013-07-09 13:35:00,81.0,70.0,-100.00,SW,233,3.0,6.0,70,0.00,,,0.02,580.000000,,2013-07-09 17:35:00,
2013-07-09 13:45:00,81.0,70.0,-100.00,SW,233,3.0,6.0,70,0.00,,,0.02,580.000000,,2013-07-09 17:45:00,
2013-07-09 13:53:00,81.0,70.0,-100.00,SW,233,3.0,6.0,70,0.00,,,0.02,580.000000,,2013-07-09 17:53:00,
2013-07-09 14:22:00,83.0,69.0,-100.00,WSW,248,5.0,10.0,63,0.00,,,0.01,712.000000,,2013-07-09 18:22:00,
2013-07-09 14:32:00,83.0,69.0,-100.00,WSW,248,5.0,10.0,63,0.00,,,0.01,712.000000,,2013-07-09 18:32:00,
2013-07-09 14:43:00,83.0,69.0,-100.00,WSW,248,5.0,10.0,63,0.00,,,0.01,712.000000,,2013-07-09 18:43:00,
2013-07-09 14:52:00,83.0,69.0,-100.00,WSW,248,5.0,10.0,63,0.00,,,0.01,712.000000,,2013-07-09 18:52:00,
2013-07-09 15:33:00,75.0,72.0,-100.00,SE,139,4.0,12.0,91,0.00,,,0.00,294.000000,,2013-07-09 19:33:00,
2013-07-09 15:42:00,75.0,72.0,-100.00,SE,139,4.0,12.0,91,0.00,,,0.00,294.000000,,2013-07-09 19:42:00,
2013-07-09 15:52:00,75.0,72.0,-100.00,SE,139,4.0,12.0,91,0.00,,,0.00,294.000000,,2013-07-09 19:52:00,
2013-07-09 16:22:00,77.0,72.0,-100.00,WSW,244,3.0,8.0,86,0.00,,,0.00,251.000000,,2013-07-09 20:22:00,
2013-07-09 16:32:00,77.0,72.0,-100.00,WSW,244,3.0,8.0,86,0.00,,,0.00,251.000000,,2013-07-09 20:32:00,
2013-07-09 16:43:00,77.0,72.0,-100.00,WSW,244,3.0,8.0,86,0.00,,,0.00,251.000000,,2013-07-09 20:43:00,
2013-07-09 16:52:00,77.0,72.0,-100.00,WSW,244,3.0,8.0,86,0.00,,,0.00,251.000000,,2013-07-09 20:52:00,
2013-07-09 17:22:00,78.0,72.0,-100.00,West,269,4.0,11.0,82,0.00,,,0.00,247.000000,,2013-07-09 21:22:00,
2013-07-09 17:32:00,78.0,72.0,-100.00,West,269,4.0,11.0,82,0.00,,,0.00,247.000000,,2013-07-09 21:32:00,
2013-07-09 17:42:00,78.0,72.0,-100.00,West,269,4.0,11.0,82,0.00,,,0.00,247.000000,,2013-07-09 21:42:00,
2013-07-09 17:52:00,78.0,72.0,-100.00,West,269,4.0,11.0,82,0.00,,,0.00,247.000000,,2013-07-09 21:52:00,
2013-07-09 18:33:00,75.0,71.0,-100.00,West,260,6.0,12.0,87,0.00,,,0.00,129.000000,,2013-07-09 22:33:00,
2013-07-09 18:42:00,75.0,71.0,-100.00,West,260,6.0,12.0,87,0.00,,,0.00,129.000000,,2013-07-09 22:42:00,
2013-07-09 18:53:00,75.0,71.0,-100.00,West,260,6.0,12.0,87,0.00,,,0.00,129.000000,,2013-07-09 22:53:00,
2013-07-09 19:22:00,74.0,72.0,-100.00,SW,226,4.0,10.0,94,0.00,,,0.00,103.000000,,2013-07-09 23:22:00,
2013-07-09 19:33:00,74.0,72.0,-100.00,SW,226,4.0,10.0,94,0.00,,,0.00,103.000000,,2013-07-09 23:33:00,
2013-07-09 19:43:00,74.0,72.0,-100.00,SW,226,4.0,10.0,94,0.00,,,0.00,103.000000,,2013-07-09 23:43:00,
2013-07-09 19:53:00,74.0,72.0,-100.00,SW,226,4.0,10.0,94,0.00,,,0.00,103.000000,,2013-07-09 23:53:00,
2013-07-09 20:22:00,74.0,71.0,-100.00,West,268,2.0,10.0,91,0.00,,,0.00,95.000000,,2013-07-10 00:22:00,
2013-07-09 20:33:00,74.0,71.0,-100.00,West,268,2.0,10.0,91,0.00,,,0.00,95.000000,,2013-07-10 00:33:00,
2013-07-09 20:43:00,74.0,71.0,-100.00,West,268,2.0,10.0,91,0.00,,,0.00,95.000000,,2013-07-10 00:43:00,
2013-07-09 20:52:00,74.0,71.0,-100.00,West,268,2.0,10.0,91,0.00,,,0.00,95.000000,,2013-07-10 00:52:00,
2013-07-09 21:22:00,72.0,72.0,-100.00,WSW,250,1.0,5.0,100,0.00,,,0.00,19.000000,,2013-07-10 01:22:00,
2013-07-09 21:33:00,72.0,72.0,-100.00,WSW,250,1.0,5.0,100,0.00,,,0.00,19.000000,,2013-07-10 01:33:00,
2013-07-09 21:43:00,72.0,72.0,-100.00,WSW,250,1.0,5.0,100,0.00,,,0.00,19.000000,,2013-07-10 01:43:00,
2013-07-09 21:53:00,72.0,72.0,-100.00,WSW,250,1.0,5.0,100,0.00,,,0.00,19.000000,,2013-07-10 01:53:00,
2013-07-09 22:23:00,69.0,69.0,-100.00,West,266,0.0,4.0,100,0.00,,,0.00,1.000000,,2013-07-10 02:23:00,
2013-07-09 22:34:00,69.0,69.0,-100.00,West,266,0.0,4.0,100,0.00,,,0.00,1.000000,,2013-07-10 02:34:00,
2013-07-09 22:43:00,69.0,69.0,-100.00,West,266,0.0,4.0,100,0.00,,,0.00,1.000000,,2013-07-10 02:43:00,
2013-07-09 22:53:00,69.0,69.0,-100.00,West,266,0.0,4.0,100,0.00,,,0.00,1.000000,,2013-07-10 02:53:00,
2013-07-09 23:22:00,72.0,72.0,-100.00,ENE,59,1.0,6.0,100,0.00,,,0.00,1.000000,,2013-07-10 03:22:00,
2013-07-09 23:32:00,72.0,72.0,-100.00,ENE,59,1.0,6.0,100,0.00,,,0.00,1.000000,,2013-07-10 03:32:00,
2013-07-09 23:43:00,72.0,72.0,-100.00,ENE,59,1.0,6.0,100,0.00,,,0.00,1.000000,,2013-07-10 03:43:00,
2013-07-09 23:52:00,72.0,72.0,-100.00,ENE,59,1.0,6.0,100,0.00,,,0.00,1.000000,,2013-07-10 03:52:00,